Location: *
(11.7485°N, 79.7483°E)
Time: 02:00:51
(UTC+00:00)

USA 238 DEB - Pass Details

Date: 22 January 2021
Orbit: 992 x 1220 km, 63.4° (Epoch: 02 March)

Event Time Altitude Azimuth Distance (km) Brightness Sun altitude
Rises 00:21:52 0° 218° (SW) 3,701 6.3 -11.0°
Reaches altitude 10° 00:24:33 10° 224° (SW) 2,747 5.6 -10.4°
Maximum altitude 00:30:38 46° 296° (WNW) 1,318 3.8 -9.0°
Drops below altitude 10° 00:36:51 10° 8° (N) 2,791 5.8 -7.6°
Sets 00:39:36 0° 14° (NNE) 3,766 6.5 -6.9°
